This demonstration page uses our WeatherBlox Daily Observations layout. Learn more.

Left ArrowRight Arrow

39.01783, -85.05884

Hourly Observations for December 9, 2022

Temp ( °F °C ) Dew Point ( °F °C ) Humidity (%) Winds ( mph kmh ) Pressure ( in mb ) Visibility ( mi km ) Precip ( " mm )
12:52 am 00:52 Cloudy with Mist and Fog 43 6.1 41 5 93 93 ENE 12 19 30.22 1023 4 6 0.00 0.00
1:52 am 01:52 Cloudy with Mist and Fog 43 6.1 41 5 93 93 ENE 8 13 30.21 1023 3 5 0.00 0.00
2:52 am 02:52 Cloudy with Mist and Fog 43 6.1 41 5 93 93 ENE 10 17 30.21 1023 3 5 0.00 0.00
3:52 am 03:52 Cloudy with Mist and Fog 42 5.6 41 5 96 96 ENE 10 17 30.20 1023 3 5 0.00 0.00
4:52 am 04:52 Cloudy with Mist and Fog 42 5.6 41 5 96 96 ENE 12 19 30.17 1022 3 5 0.00 0.00
5:52 am 05:52 Cloudy with Mist and Fog 41 5 40 4.4 96 96 ENE 10 17 30.17 1022 3 5 0.00 0.00
6:52 am 06:52 Cloudy with Mist and Fog 41 5 39 3.9 93 93 ENE 8 13 30.18 1022 3 5 0.00 0.00
7:52 am 07:52 Cloudy with Mist and Fog 41 5 39 3.9 93 93 ENE 8 13 30.19 1022 3 5 0.00 0.00
8:01 am 08:01 Cloudy with Mist and Fog 41 5 39 3.9 93 93 ENE 9 15 30.21 1023 3 5 0.00 0.00
8:19 am 08:19 Cloudy with Mist and Fog 41 5 40 4.4 96 96 E 10 17 30.21 1023 3 4 0.00 0.00
8:35 am 08:35 Cloudy with Mist and Fog 41 5 40 4.4 96 96 ENE 12 19 30.21 1023 3 4 0.00 0.00
8:52 am 08:52 Cloudy with Mist and Fog 42 5.6 40 4.4 92 92 ENE 9 15 30.18 1022 3 4 0.00 0.00
9:52 am 09:52 Mostly Cloudy with Mist and Fog 44 6.7 41 5 89 89 E 9 15 30.16 1021 3 4 0.00 0.00
10:03 am 10:03 Mostly Cloudy with Mist and Fog 44 6.7 41 5 89 89 E 10 17 30.18 1022 3 5 0.00 0.00
10:52 am 10:52 Mostly Cloudy with Haze 47 8.3 41 5 80 80 E 8 13 30.16 1021 5 8 0.00 0.00
11:52 am 11:52 Cloudy with Haze 48 8.9 41 5 76 76 ESE 7 11 30.13 1020 5 8 0.00 0.00
12:21 pm 12:21 Mostly Cloudy with Haze 49 9.4 41 5 74 74 E 10 17 30.11 1020 6 10 0.00 0.00
12:52 pm 12:52 Mostly Cloudy 50 10 41 5 71 71 SE 13 20 30.09 1019 7 11 0.00 0.00
1:52 pm 13:52 Cloudy 50 10 43 6.1 77 77 SE 13 20 30.05 1018 8 13 0.00 0.00
2:52 pm 14:52 Cloudy 50 10 46 7.8 86 86 SE 10 17 30.04 1017 8 13 0.01 0.13
3:20 pm 15:20 Cloudy 50 10 46 7.8 86 86 SW 6 9 30.07 1018 8 13 0.00 0.00
3:46 pm 15:46 Cloudy with Drizzle 50 10 46 8 87 87 S 5 7 30.08 1019 3 5 0.01 0.13
3:52 pm 15:52 Cloudy with Drizzle 49 9.4 47 8.3 93 93 S 5 7 30.07 1018 4 6 0.01 0.13
4:46 pm 16:46 Cloudy with Mist and Fog 48 9 46 8 93 93 WSW 3 6 30.09 1019 4 6 0.01 0.13
4:52 pm 16:52 Cloudy with Mist and Fog 49 9.4 47 8.3 93 93 W 3 6 30.09 1019 5 8 0.01 0.13
5:57 pm 17:57 Cloudy with Drizzle 48 8.9 48 8.9 100 100 NW 6 9 30.11 1020 2 3 0.01 0.13
6:03 pm 18:03 Cloudy with Drizzle 48 8.9 48 8.9 100 100 NW 6 9 30.11 1020 2 2 0.01 0.13
6:30 pm 18:30 Cloudy with Drizzle 48 8.9 48 8.9 100 100 Calm 30.11 1020 2 3 0.01 0.13
6:52 pm 18:52 Cloudy with Mist and Fog 48 8.9 48 8.9 100 100 WNW 3 6 30.10 1019 2 3 0.01 0.13
7:11 pm 19:11 Cloudy with Mist and Fog 47 8.3 47 8.3 100 100 NNW 5 7 30.13 1020 2 3 0.00 0.00
7:52 pm 19:52 Cloudy with Mist and Fog 47 8.3 47 8.3 100 100 NNW 5 7 30.12 1020 0 0 0.00 0.00
8:09 pm 20:09 Cloudy with Mist and Fog 46 7.8 46 7.8 100 100 NW 3 6 30.13 1020 1 2 0.00 0.00
8:52 pm 20:52 Cloudy with Mist and Fog 46 7.8 46 7.8 100 100 NNW 3 6 30.12 1020 2 2 0.00 0.00
9:33 pm 21:33 Cloudy with Mist and Fog 46 7.8 45 7.2 96 96 Calm 30.14 1021 2 3 0.00 0.00
9:52 pm 21:52 Cloudy with Mist and Fog 45 7.2 45 7.2 100 100 Calm 30.12 1020 2 3 0.00 0.00
10:38 pm 22:38 Partly Cloudy with Mist and Fog 44 6.7 44 6.7 100 100 Calm 30.14 1021 2 3 0.00 0.00
10:47 pm 22:47 Clear with Mist and Fog 43 6 43 6 100 100 Calm 30.15 1021 2 3 0.00 0.00
10:52 pm 22:52 Partly Cloudy with Mist and Fog 42 5.6 42 5.6 100 100 WNW 3 6 30.12 1020 1 2 0.00 0.00
10:59 pm 22:59 Partly Cloudy with Mist and Fog 42 5.6 42 5.6 100 100 WNW 3 6 30.15 1021 2 3 0.00 0.00
11:07 pm 23:07 Mostly Cloudy with Mist and Fog 43 6.1 43 6.1 100 100 NW 6 9 30.15 1021 2 3 0.00 0.00
11:23 pm 23:23 Cloudy with Mist and Fog 44 6.7 44 6.7 100 100 NW 6 9 30.15 1021 3 5 0.00 0.00
11:38 pm 23:38 Cloudy with Mist and Fog 43 6.1 43 6.1 100 100 NW 5 7 30.15 1021 3 4 0.00 0.00
11:52 pm 23:52 Mostly Cloudy with Mist and Fog 44 6.7 44 6.7 100 100 NNW 7 11 30.14 1021 3 5 0.00 0.00

Powered by AerisWeather